TimeAKST,TemperatureF,Dew PointF,Humidity,Sea Level PressureIn,VisibilityMPH,Wind Direction,Wind SpeedMPH,Gust SpeedMPH,PrecipitationIn,Events,Conditions,WindDirDegrees,DateUTC
12:16 AM,39.2,30.2,70,29.57,10.0,NE,15.0,20.7,N/A,,Overcast,40,2013-01-01 09:16:00
12:36 AM,41.0,30.2,65,29.56,10.0,NE,11.5,20.7,N/A,,Overcast,50,2013-01-01 09:36:00
12:56 AM,41.0,32.0,70,29.55,10.0,NE,15.0,23.0,N/A,,Mostly Cloudy,40,2013-01-01 09:56:00
1:16 AM,41.0,30.2,65,29.55,10.0,NNE,6.9,20.7,N/A,,Mostly Cloudy,30,2013-01-01 10:16:00
1:36 AM,41.0,30.2,65,29.51,10.0,ENE,5.8,20.7,N/A,,Partly Cloudy,60,2013-01-01 10:36:00
1:56 AM,41.0,30.2,65,29.52,10.0,East,6.9,19.6,N/A,,Clear,90,2013-01-01 10:56:00
2:16 AM,42.8,30.2,61,29.51,10.0,NE,13.8,23.0,N/A,,Clear,50,2013-01-01 11:16:00
2:36 AM,41.0,33.8,76,29.49,10.0,NE,19.6,29.9,N/A,,Partly Cloudy,40,2013-01-01 11:36:00
3:16 AM,42.8,30.2,61,29.48,10.0,SE,4.6,-,N/A,,Clear,130,2013-01-01 12:16:00
3:36 AM,39.2,30.2,70,29.46,10.0,SE,8.1,-,N/A,,Clear,140,2013-01-01 12:36:00
3:56 AM,39.2,32.0,75,29.47,10.0,South,11.5,25.3,N/A,,Clear,180,2013-01-01 12:56:00
4:16 AM,41.0,32.0,70,29.47,10.0,South,5.8,-,N/A,,Partly Cloudy,170,2013-01-01 13:16:00
4:36 AM,39.2,32.0,75,29.44,10.0,SSE,5.8,-,N/A,,Clear,150,2013-01-01 13:36:00
4:56 AM,39.2,32.0,75,29.45,10.0,West,3.5,-,N/A,,Clear,260,2013-01-01 13:56:00
5:16 AM,39.2,32.0,75,29.44,10.0,Calm,Calm,-,N/A,,Partly Cloudy,0,2013-01-01 14:16:00
5:36 AM,39.2,32.0,75,29.45,10.0,NE,5.8,-,N/A,,Clear,40,2013-01-01 14:36:00
5:56 AM,41.0,32.0,70,29.45,10.0,ENE,11.5,17.3,N/A,,Clear,70,2013-01-01 14:56:00
6:16 AM,41.0,33.8,76,29.44,10.0,ENE,13.8,26.5,N/A,,Clear,60,2013-01-01 15:16:00
6:36 AM,37.4,35.6,93,29.43,10.0,North,16.1,23.0,N/A,,Clear,360,2013-01-01 15:36:00
6:56 AM,35.6,35.6,100,29.43,10.0,NNE,15.0,20.7,N/A,,Partly Cloudy,20,2013-01-01 15:56:00
7:16 AM,35.6,33.8,93,29.41,10.0,NNE,16.1,27.6,N/A,,Scattered Clouds,20,2013-01-01 16:16:00
7:36 AM,35.6,33.8,93,29.39,10.0,North,16.1,23.0,N/A,,Clear,10,2013-01-01 16:36:00
7:56 AM,35.6,33.8,93,29.38,10.0,NNE,18.4,29.9,N/A,,Clear,30,2013-01-01 16:56:00
8:16 AM,35.6,33.8,93,29.37,10.0,NNE,15.0,24.2,N/A,,Scattered Clouds,30,2013-01-01 17:16:00
8:36 AM,37.4,33.8,87,29.38,10.0,South,12.7,17.3,N/A,,Scattered Clouds,170,2013-01-01 17:36:00
8:56 AM,35.6,33.8,93,29.37,10.0,SSW,6.9,-,N/A,,Scattered Clouds,210,2013-01-01 17:56:00
9:16 AM,35.6,33.8,93,29.37,10.0,Calm,Calm,-,N/A,,Scattered Clouds,0,2013-01-01 18:16:00
9:36 AM,35.6,33.8,93,29.37,10.0,North,3.5,-,N/A,,Scattered Clouds,10,2013-01-01 18:36:00
9:56 AM,37.4,33.8,87,29.37,10.0,ESE,4.6,-,N/A,,Partly Cloudy,110,2013-01-01 18:56:00
10:16 AM,35.6,33.8,93,29.37,10.0,South,3.5,-,N/A,,Clear,170,2013-01-01 19:16:00
10:36 AM,33.8,32.0,93,29.37,10.0,SE,3.5,-,N/A,,Partly Cloudy,130,2013-01-01 19:36:00
10:56 AM,33.8,32.0,93,29.37,10.0,Calm,Calm,-,N/A,,Partly Cloudy,0,2013-01-01 19:56:00
11:16 AM,33.8,33.8,100,29.36,10.0,North,3.5,-,N/A,,Mostly Cloudy,10,2013-01-01 20:16:00
11:36 AM,35.6,33.8,93,29.35,10.0,ESE,3.5,-,N/A,,Mostly Cloudy,120,2013-01-01 20:36:00
11:56 AM,33.8,32.0,93,29.34,10.0,Calm,Calm,-,N/A,,Scattered Clouds,0,2013-01-01 20:56:00
12:16 PM,33.8,30.2,87,29.32,10.0,ESE,4.6,-,N/A,,Scattered Clouds,120,2013-01-01 21:16:00
12:36 PM,33.8,30.2,87,29.31,10.0,South,3.5,-,N/A,,Scattered Clouds,170,2013-01-01 21:36:00
12:56 PM,33.8,30.2,87,29.30,10.0,Calm,Calm,-,N/A,,Scattered Clouds,0,2013-01-01 21:56:00
1:16 PM,33.8,30.2,87,29.28,10.0,SSW,3.5,-,N/A,,Scattered Clouds,200,2013-01-01 22:16:00
1:36 PM,33.8,30.2,87,29.27,10.0,South,3.5,-,N/A,,Scattered Clouds,190,2013-01-01 22:36:00
1:56 PM,33.8,32.0,93,29.26,10.0,SSW,4.6,-,N/A,,Clear,210,2013-01-01 22:56:00
2:16 PM,33.8,30.2,87,29.25,10.0,Calm,Calm,-,N/A,,Partly Cloudy,0,2013-01-01 23:16:00
2:36 PM,33.8,30.2,87,29.25,10.0,South,5.8,-,N/A,,Scattered Clouds,190,2013-01-01 23:36:00
2:56 PM,33.8,32.0,93,29.24,10.0,SE,4.6,-,N/A,,Partly Cloudy,140,2013-01-01 23:56:00
3:16 PM,33.8,32.0,93,29.24,10.0,Calm,Calm,-,N/A,,Scattered Clouds,0,2013-01-02 00:16:00
3:36 PM,33.8,32.0,93,29.24,10.0,Calm,Calm,-,N/A,,Mostly Cloudy,0,2013-01-02 00:36:00
3:56 PM,33.8,32.0,93,29.23,10.0,SSW,4.6,-,N/A,,Overcast,200,2013-01-02 00:56:00
4:16 PM,33.8,32.0,93,29.23,10.0,SSW,8.1,-,N/A,,Overcast,200,2013-01-02 01:16:00
4:36 PM,35.6,32.0,87,29.22,10.0,South,10.4,-,N/A,,Overcast,190,2013-01-02 01:36:00
4:56 PM,35.6,33.8,93,29.21,10.0,South,6.9,-,N/A,,Overcast,180,2013-01-02 01:56:00
5:16 PM,35.6,32.0,87,29.22,10.0,West,3.5,-,N/A,,Overcast,270,2013-01-02 02:16:00
5:36 PM,35.6,32.0,87,29.22,10.0,SW,4.6,-,N/A,,Overcast,220,2013-01-02 02:36:00
5:56 PM,35.6,32.0,87,29.22,10.0,Calm,Calm,-,N/A,,Overcast,0,2013-01-02 02:56:00
6:16 PM,35.6,32.0,87,29.22,10.0,SSW,4.6,-,N/A,,Overcast,200,2013-01-02 03:16:00
6:36 PM,35.6,32.0,87,29.21,10.0,SSW,4.6,-,N/A,,Overcast,200,2013-01-02 03:36:00
6:56 PM,35.6,32.0,87,29.21,10.0,SW,3.5,-,N/A,,Overcast,220,2013-01-02 03:56:00
7:16 PM,33.8,30.2,87,29.22,10.0,SSW,3.5,-,N/A,,Overcast,210,2013-01-02 04:16:00
7:36 PM,33.8,30.2,87,29.22,10.0,Calm,Calm,-,N/A,,Overcast,0,2013-01-02 04:36:00
7:56 PM,35.6,30.2,81,29.21,10.0,NNE,5.8,-,N/A,,Overcast,30,2013-01-02 04:56:00
8:16 PM,33.8,30.2,87,29.21,10.0,Calm,Calm,-,N/A,,Overcast,0,2013-01-02 05:16:00
8:36 PM,35.6,32.0,87,29.21,10.0,NE,9.2,-,N/A,,Overcast,50,2013-01-02 05:36:00
8:56 PM,35.6,32.0,87,29.21,10.0,NE,8.1,-,N/A,,Overcast,50,2013-01-02 05:56:00
9:36 PM,35.6,32.0,87,29.23,10.0,NNE,8.1,-,N/A,,Overcast,30,2013-01-02 06:36:00
9:56 PM,35.6,32.0,87,29.24,10.0,North,4.6,-,N/A,,Overcast,10,2013-01-02 06:56:00
10:16 PM,37.4,30.2,75,29.24,10.0,North,5.8,-,N/A,,Overcast,350,2013-01-02 07:16:00
10:36 PM,39.2,28.4,65,29.25,10.0,North,9.2,-,N/A,,Overcast,360,2013-01-02 07:36:00
10:56 PM,39.2,26.6,61,29.25,10.0,NE,8.1,-,N/A,,Overcast,40,2013-01-02 07:56:00
11:16 PM,39.2,24.8,56,29.26,10.0,Calm,Calm,-,N/A,,Overcast,0,2013-01-02 08:16:00
11:36 PM,42.8,23.0,46,29.26,10.0,North,4.6,-,N/A,,Overcast,10,2013-01-02 08:36:00
11:56 PM,39.2,24.8,56,29.26,10.0,NNE,3.5,-,N/A,,Overcast,30,2013-01-02 08:56:00